Simultaneous Nadir Overpasses (SNOs) Predictions

Prediction of SNOs between GOES-17 and FY3D Satellite Orbit:

Table of predicted SNOs for the next 14.0 days since TLE Epoch: 11/19/2021
Index Date Time (GOES-17) GOES-17 Lat,Lon FY3D Lat,Lon Distance(km) Time Diff (sec)
1 11/19/2021 23:00:52 -0.01,-137.22 -0.57,-139.77 291.43 80
2 11/20/2021 22:45:12 -0.01,-137.21 0.43,-135.34 213.65 80
3 11/22/2021 11:05:01 0.01,-137.20 0.82,-140.76 405.52 80
4 11/23/2021 10:49:25 0.01,-137.19 -0.16,-136.34 97.00 80
5 11/25/2021 22:51:20 -0.01,-137.16 -0.06,-137.43 31.10 80
6 11/26/2021 22:35:51 -0.01,-137.15 0.91,-133.04 468.14 80
7 11/28/2021 10:58:36 0.00,-137.13 0.29,-138.53 159.57 80
8 11/29/2021 10:37:50 0.00,-137.11 -0.65,-134.15 337.31 80
9 11/30/2021 23:00:52 -0.00,-137.08 -0.60,-139.70 299.60 80
10 12/01/2021 22:45:31 -0.00,-137.06 0.37,-135.35 194.83 80
11 12/03/2021 11:08:30 0.00,-137.03 0.86,-140.89 440.32 80
